Location: Pabrico
(37.5827°N, 122.0063°W)
Time: 21:58:41
(UTC+00:00)

ATLAS 2AS CENTAUR R/B - Pass Details

Date: 13 April 2024
Orbit: 1015 x 1195 km, 63.7° (Epoch: 21 May)

Event Time Altitude Azimuth Distance (km) Brightness Sun altitude
Exits shadow 12:37:42 12° 227° (SW) 2,950 4.4 -11.7°
Maximum altitude 12:44:35 60° 306° (NW) 1,311 3.0 -10.4°
Drops below altitude 10° 12:51:42 10° 26° (NNE) 3,007 5.8 -9.1°
Sets 12:54:24 0° 30° (NNE) 3,943 6.5 -8.6°
